FW4624 Weather Reports


time (UTC)temp
C
wind
direction
speed
KPH
gust
KPH
rain 1hr
cm
rain 24hr
cm
rain mn
cm
humidity
%
barometer
mb
20260901113004 22 226 9.7 17.7 0.00 0.03 0.00 63 1021.1
20260901112503 22 190 8.0 16.1 0.00 0.03 0.00 65 1021.1
20260901112003 22 219 4.8 19.3 0.00 0.03 0.00 65 1021.1
20260901111503 22 240 9.7 19.3 0.00 0.03 0.00 67 1021.1
20260901111003 21 229 9.7 17.7 0.00 0.03 0.00 68 1021.3
20260901110502 21 182 11.3 17.7 0.00 0.03 0.00 67 1021.2
20260901110004 21 205 9.7 19.3 0.00 0.03 0.00 66 1021.3
20260901105503 22 237 9.7 19.3 0.00 0.03 0.00 66 1021.3
20260901105005 22 230 12.9 17.7 0.00 0.03 0.00 66 1021.3
20260901104501 22 207 8.0 16.1 0.00 0.03 0.00 68 1021.4
20260901104100 21 221 8.0 16.1 0.00 0.03 0.00 70 1021.3
20260901103601 20 206 4.8 16.1 0.00 0.03 0.00 72 1021.3
20260901103100 20 226 8.0 19.3 0.00 0.03 0.00 71 1021.3
20260901102600 21 210 6.4 14.5 0.00 0.03 0.00 70 1021.3
20260901102059 21 172 4.8 11.3 0.00 0.03 0.00 70 1021.3
20260901101611 21 213 6.4 11.3 0.00 0.03 0.00 69 1021.3
20260901101102 21 201 4.8 9.7 0.00 0.03 0.00 69 1021.4
20260901100601 22 186 3.2 8.0 0.00 0.03 0.00 68 1021.5
20260901100100 21 180 0.0 11.3 0.00 0.03 0.00 67 1021.5
20260901095558 22 182 3.2 12.9 0.00 0.03 0.00 69 1021.6
20260901095059 21 203 6.4 12.9 0.00 0.03 0.00 69 1021.5
20260901094558 21 146 6.4 14.5 0.00 0.03 0.00 68 1021.6
20260901094057 21 175 8.0 14.5 0.00 0.03 0.00 69 1021.6
20260901093558 21 198 6.4 14.5 0.00 0.03 0.00 71 1021.6
20260901093055 21 175 4.8 14.5 0.00 0.03 0.00 70 1021.7
20260901092554 21 184 6.4 14.5 0.00 0.03 0.00 70 1021.7
20260901092056 20 227 4.8 14.5 0.00 0.03 0.00 72 1021.8
20260901091605 20 203 6.4 12.9 0.00 0.03 0.00 71 1021.8
20260901091053 21 193 6.4 12.9 0.00 0.03 0.00 73 1021.8
20260901090552 21 192 4.8 12.9 0.00 0.03 0.00 73 1021.8
20260901090052 20 206 4.8 12.9 0.00 0.03 0.00 73 1021.8
20260901085551 20 176 4.8 12.9 0.00 0.03 0.00 74 1021.9
20260901085051 20 190 4.8 12.9 0.00 0.03 0.00 75 1021.8
20260901084549 20 180 6.4 12.9 0.00 0.03 0.00 75 1021.8
20260901084052 20 159 6.4 11.3 0.00 0.03 0.00 76 1021.9
20260901083549 20 207 6.4 9.7 0.00 0.03 0.00 75 1021.7
20260901083049 20 194 4.8 9.7 0.00 0.03 0.00 78 1021.8
20260901082546 19 183 3.2 9.7 0.00 0.03 0.00 79 1021.8
20260901082046 18 211 3.2 12.9 0.00 0.03 0.00 77 1021.9
20260901081550 18 230 6.4 12.9 0.00 0.03 0.00 79 1021.9
20260901081043 18 213 3.2 11.3 0.00 0.03 0.00 80 1021.9
20260901080542 18 200 4.8 12.9 0.00 0.03 0.00 81 1021.8
20260901080052 18 201 3.2 11.3 0.00 0.03 0.00 81 1021.8
20260901075542 18 201 4.8 11.3 0.00 0.03 0.00 83 1021.8
20260901075042 18 188 6.4 11.3 0.00 0.03 0.00 83 1021.8
20260901074548 18 171 3.2 11.3 0.00 0.03 0.00 85 1021.7
20260901074038 17 184 4.8 11.3 0.00 0.03 0.00 86 1021.7
20260901073541 17 179 4.8 11.3 0.00 0.03 0.00 87 1021.7
20260901073040 17 172 4.8 11.3 0.00 0.03 0.00 88 1021.7
20260901072535 16 182 6.4 11.3 0.00 0.03 0.00 89 1021.6
20260901072036 16 178 4.8 11.3 0.00 0.03 0.00 90 1021.6
20260901071533 16 184 4.8 9.7 0.00 0.03 0.00 91 1021.6
20260901071031 16 185 4.8 9.7 0.00 0.03 0.00 91 1021.6
20260901070530 16 182 3.2 11.3 0.00 0.03 0.00 92 1021.6
20260901070034 15 187 6.4 11.3 0.00 0.03 0.00 92 1021.7
20260901065530 15 219 3.2 8.0 0.00 0.03 0.00 93 1021.7
20260901065029 15 219 3.2 8.0 0.00 0.03 0.00 93 1021.7
20260901064531 14 220 4.8 8.0 0.00 0.03 0.00 93 1021.7
20260901064029 14 222 3.2 8.0 0.00 0.03 0.00 93 1021.7
20260901063528 14 222 3.2 8.0 0.00 0.03 0.00 93 1021.7
20260901063029 14 226 3.2 8.0 0.00 0.03 0.00 93 1021.7
20260901062527 14 227 3.2 8.0 0.00 0.03 0.00 93 1021.6
20260901062027 14 228 3.2 6.4 0.00 0.03 0.00 93 1021.5
20260901061526 13 232 3.2 6.4 0.00 0.03 0.00 93 1021.4
20260901061026 13 232 1.6 4.8 0.00 0.03 0.00 93 1021.3
20260901060525 13 232 1.6 4.8 0.00 0.03 0.00 93 1021.2
20260901060024 13 232 1.6 4.8 0.00 0.03 0.00 93 1021.2
20260901055527 13 232 1.6 4.8 0.00 0.03 0.00 93 1021.2
20260901055025 13 232 1.6 6.4 0.00 0.03 0.00 93 1021.1
20260901054522 13 232 3.2 6.4 0.00 0.03 0.00 93 1021.0
20260901054021 13 233 3.2 6.4 0.00 0.03 0.00 93 1020.7
20260901053521 13 234 4.8 6.4 0.00 0.03 0.00 93 1020.8
20260901053021 13 234 3.2 8.0 0.00 0.03 0.00 93 1020.7
20260901052520 13 234 3.2 8.0 0.00 0.03 0.00 93 1020.6
20260901052020 13 235 4.8 8.0 0.00 0.03 0.00 93 1020.7
20260901051529 13 237 3.2 6.4 0.00 0.03 0.00 93 1020.6
20260901051019 13 240 3.2 6.4 0.00 0.03 0.00 93 1020.6
20260901050520 13 241 1.6 4.8 0.00 0.03 0.00 93 1020.5
20260901050019 13 241 1.6 4.8 0.00 0.03 0.00 93 1020.5
20260901045518 13 241 1.6 3.2 0.00 0.03 0.00 93 1020.7
20260901045023 13 241 0.0 3.2 0.00 0.03 0.00 93 1020.6
20260901044520 13 241 0.0 0.0 0.00 0.03 0.00 93 1020.6
20260901044018 13 241 0.0 0.0 0.00 0.03 0.00 93 1020.7
20260901043518 13 241 0.0 0.0 0.00 0.03 0.00 93 1020.6
20260901043018 13 241 0.0 0.0 0.00 0.03 0.00 93 1020.6
20260901042518 13 241 0.0 0.0 0.00 0.03 0.00 93 1020.6
20260901042016 13 241 0.0 0.0 0.00 0.03 0.00 93 1020.5
20260901041536 13 241 0.0 4.8 0.00 0.03 0.00 93 1020.5
20260901041015 13 241 0.0 4.8 0.00 0.03 0.00 93 1020.4
20260901040515 13 241 0.0 3.2 0.00 0.03 0.00 93 1020.5
20260901040019 13 241 1.6 4.8 0.00 0.03 0.00 93 1020.5
20260901035515 13 241 1.6 4.8 0.00 0.05 0.00 93 1020.4
20260901035015 13 241 1.6 4.8 0.00 0.05 0.00 93 1020.4
20260901034513 13 241 1.6 4.8 0.00 0.05 0.00 92 1020.4
20260901034013 13 241 1.6 8.0 0.00 0.05 0.00 92 1020.4
20260901033513 13 241 3.2 8.0 0.00 0.05 0.00 92 1020.3
20260901033013 13 241 1.6 6.4 0.00 0.05 0.00 92 1020.2
20260901032513 13 241 3.2 6.4 0.00 0.05 0.00 92 1020.3
20260901032017 13 242 1.6 4.8 0.00 0.05 0.00 92 1020.2
20260901031513 13 242 1.6 6.4 0.00 0.05 0.00 92 1020.1
20260901031011 13 242 3.2 6.4 0.00 0.05 0.00 93 1020.1
20260901030511 13 242 3.2 6.4 0.00 0.05 0.00 92 1020.1
20260901030011 13 243 3.2 8.0 0.00 0.05 0.00 92 1020.1
20260901025511 13 243 3.2 8.0 0.00 0.25 0.00 92 1020.1
20260901025011 13 245 4.8 11.3 0.00 0.25 0.00 93 1020.2
20260901024511 13 247 4.8 8.0 0.00 0.25 0.00 93 1020.2
20260901024009 13 248 3.2 8.0 0.00 0.25 0.00 92 1020.0
20260901023509 13 248 3.2 4.8 0.00 0.25 0.00 93 1020.0
20260901023010 13 248 1.6 4.8 0.00 0.25 0.00 93 1019.9
20260901022512 13 248 1.6 4.8 0.00 0.25 0.00 93 1020.0
20260901022009 13 248 1.6 4.8 0.00 0.25 0.00 93 1019.9
20260901021512 13 248 1.6 3.2 0.00 0.25 0.00 93 1020.0
20260901021008 13 248 0.0 3.2 0.00 0.25 0.00 93 1020.0
20260901020509 12 248 0.0 3.2 0.00 0.25 0.00 93 1019.9
20260901020007 12 248 0.0 1.6 0.00 0.25 0.00 93 1019.9
20260901015508 12 248 0.0 1.6 0.00 0.41 0.00 93 1019.8
20260901015009 12 248 0.0 0.0 0.00 0.41 0.00 93 1019.7
20260901014516 12 248 0.0 1.6 0.00 0.41 0.00 93 1019.6
20260901014009 12 248 0.0 1.6 0.00 0.41 0.00 92 1019.7
20260901013505 12 248 0.0 1.6 0.00 0.41 0.00 93 1019.7
20260901013005 12 248 0.0 0.0 0.00 0.41 0.00 93 1019.6
20260901012504 12 248 0.0 0.0 0.00 0.41 0.00 92 1019.6
20260901012004 12 248 0.0 0.0 0.00 0.41 0.00 92 1019.6
20260901011504 12 248 0.0 1.6 0.00 0.41 0.00 92 1019.6
20260901011004 12 248 0.0 4.8 0.00 0.41 0.00 92 1019.6
20260901010503 12 248 1.6 4.8 0.00 0.41 0.00 92 1019.6
20260901010003 12 248 0.0 3.2 0.00 0.41 0.00 92 1019.5
20260901005504 12 248 0.0 0.0 0.00 0.66 0.00 92 1019.4
20260901005004 12 248 0.0 0.0 0.00 0.66 0.00 92 1019.5
20260901004502 12 248 0.0 0.0 0.00 0.66 0.00 92 1019.4
20260901004002 12 248 0.0 0.0 0.00 0.66 0.00 92 1019.4
20260901003502 12 248 0.0 0.0 0.00 0.66 0.00 92 1019.4
20260901003001 12 248 0.0 0.0 0.00 0.66 0.00 91 1019.4
20260901002602 12 248 0.0 0.0 0.00 0.66 0.00 91 1019.3
20260901002059 12 248 0.0 0.0 0.00 0.66 0.00 91 1019.3
20260901001608 12 248 0.0 0.0 0.00 0.66 0.00 91 1019.4
20260901001059 12 248 0.0 0.0 0.00 0.66 0.00 91 1019.3
20260901000558 13 248 0.0 0.0 0.00 0.66 0.00 91 1019.3
20260901000109 13 248 0.0 3.2 0.00 0.66 0.00 91 1019.3
20260831235601 13 248 0.0 3.2 0.00 0.71 0.00 91 1019.4
20260831235058 13 248 0.0 4.8 0.00 0.71 0.00 91 1019.4
20260831234618 13 248 1.6 4.8 0.00 0.71 0.00 91 1019.4
20260831234058 13 248 1.6 4.8 0.00 0.71 0.00 91 1019.3
20260831233600 13 248 1.6 4.8 0.00 0.71 0.00 91 1019.2
20260831233118 12 248 1.6 4.8 0.00 0.71 0.00 90 1019.4
20260831232555 13 248 0.0 3.2 0.00 0.71 0.00 91 1019.2
20260831232055 13 248 1.6 3.2 0.00 0.71 0.00 91 1019.4
20260831231555 13 248 1.6 3.2 0.00 0.71 0.00 90 1019.3
20260831231054 13 248 1.6 3.2 0.00 0.71 0.00 90 1019.3
20260831230556 13 248 0.0 3.2 0.00 0.71 0.00 90 1019.3
20260831230053 13 248 0.0 3.2 0.00 0.71 0.00 90 1019.3
20260831225552 13 248 0.0 3.2 0.00 0.71 0.00 90 1019.2
20260831225051 13 248 1.6 3.2 0.00 0.71 0.00 89 1019.3
20260831224550 13 248 0.0 0.0 0.00 0.71 0.00 89 1019.2
20260831224053 14 248 0.0 0.0 0.00 0.71 0.00 89 1019.2
20260831223548 14 248 0.0 0.0 0.00 0.71 0.00 89 1019.3
20260831223048 14 248 0.0 0.0 0.00 0.71 0.00 88 1019.2
20260831222551 14 248 0.0 0.0 0.00 0.71 0.00 88 1019.2
20260831222045 15 248 0.0 0.0 0.00 0.71 0.00 87 1019.2
20260831221545 15 248 0.0 1.6 0.00 0.71 0.00 87 1019.1
20260831221044 15 248 0.0 3.2 0.00 0.71 0.00 86 1019.2
20260831220544 15 248 0.0 3.2 0.00 0.71 0.00 86 1019.1
20260831220042 15 248 0.0 3.2 0.00 0.71 0.00 85 1019.1
20260831215541 16 248 0.0 3.2 0.00 0.71 0.71 85 1018.9
20260831215040 16 248 0.0 3.2 0.00 0.71 0.71 85 1018.9
20260831214539 16 248 0.0 1.6 0.00 0.71 0.71 85 1018.9
20260831214039 16 248 0.0 3.2 0.00 0.71 0.71 85 1018.8
20260831213542 16 248 1.6 3.2 0.00 0.71 0.71 86 1018.7
20260831213038 16 248 1.6 3.2 0.00 0.71 0.71 86 1018.8
20260831212540 16 248 0.0 4.8 0.00 0.71 0.71 86 1018.6
20260831212037 16 248 1.6 4.8 0.00 0.71 0.71 86 1018.7
20260831211538 16 248 1.6 4.8 0.00 0.71 0.71 86 1018.5
20260831211139 16 248 0.0 1.6 0.00 0.71 0.71 86 1018.6
20260831210536 16 248 0.0 3.2 0.00 0.71 0.71 87 1018.6
20260831210038 16 248 0.0 3.2 0.00 0.71 0.71 86 1018.5
20260831205537 16 248 0.0 3.2 0.00 0.71 0.71 86 1018.6
20260831205038 16 248 1.6 3.2 0.00 0.71 0.71 86 1018.4
20260831204536 16 248 0.0 0.0 0.00 0.71 0.71 86 1018.4
20260831204036 16 248 0.0 0.0 0.00 0.71 0.71 85 1018.3
20260831203535 16 248 0.0 0.0 0.00 0.71 0.71 84 1018.2
20260831203036 16 248 0.0 4.8 0.00 0.71 0.71 83 1018.3
20260831202534 16 248 0.0 4.8 0.00 0.71 0.71 82 1018.2
20260831202034 17 248 0.0 6.4 0.00 0.71 0.71 82 1018.2
20260831201542 17 248 3.2 6.4 0.00 0.71 0.71 83 1018.2
20260831201135 17 248 4.8 6.4 0.00 0.71 0.71 83 1018.1
20260831200531 16 246 1.6 8.0 0.00 0.71 0.71 83 1017.8
20260831200030 16 246 3.2 8.0 0.00 0.71 0.71 83 1017.8
20260831195535 16 248 0.0 1.6 0.00 0.71 0.71 83 1017.7
20260831195030 16 248 0.0 0.0 0.00 0.71 0.71 83 1017.6
20260831194530 16 248 0.0 0.0 0.00 0.71 0.71 83 1017.6
20260831194031 16 248 0.0 0.0 0.00 0.71 0.71 82 1017.7
20260831193529 16 248 0.0 0.0 0.00 0.71 0.71 81 1017.5
20260831193030 16 248 0.0 0.0 0.00 0.71 0.71 80 1017.4
20260831192527 17 248 0.0 3.2 0.00 0.71 0.71 79 1017.4
20260831192027 17 248 0.0 3.2 0.00 0.71 0.71 78 1017.3
20260831191527 17 248 0.0 1.6 0.00 0.71 0.71 78 1017.2
20260831191027 17 248 0.0 3.2 0.00 0.71 0.71 78 1017.2
20260831190526 17 248 0.0 4.8 0.00 0.71 0.71 77 1017.2
20260831190026 17 248 1.6 6.4 0.00 0.71 0.71 77 1017.0
20260831185526 17 248 3.2 16.1 0.00 0.71 0.71 77 1017.0
20260831185024 17 244 3.2 16.1 0.00 0.71 0.71 77 1017.0
20260831184525 17 257 3.2 9.7 0.00 0.71 0.71 78 1016.8
20260831184024 17 259 3.2 9.7 0.00 0.71 0.71 77 1016.8
20260831183524 17 260 3.2 9.7 0.00 0.71 0.71 77 1016.8
20260831183024 17 259 3.2 9.7 0.00 0.71 0.71 77 1016.7
20260831182524 17 257 3.2 9.7 0.00 0.71 0.71 77 1016.6
20260831182024 17 257 3.2 11.3 0.00 0.71 0.71 77 1016.5
20260831181524 17 254 1.6 19.3 0.00 0.71 0.71 77 1016.3
20260831181024 17 269 4.8 19.3 0.00 0.71 0.71 77 1016.3
20260831180523 17 265 1.6 9.7 0.00 0.71 0.71 78 1016.1
20260831180025 17 263 1.6 14.5 0.03 0.71 0.71 78 1016.2
20260831175522 17 261 1.6 14.5 0.03 0.71 0.71 78 1016.0
20260831175022 17 250 3.2 14.5 0.03 0.71 0.71 79 1016.1
20260831174522 18 265 1.6 11.3 0.03 0.71 0.71 79 1016.1
20260831174022 18 281 1.6 6.4 0.03 0.71 0.71 79 1016.2
20260831173522 18 295 1.6 6.4 0.03 0.71 0.71 78 1016.2
20260831173021 18 305 1.6 4.8 0.03 0.71 0.71 78 1015.9
20260831172519 18 304 1.6 4.8 0.03 0.71 0.71 78 1015.8
20260831172020 18 304 1.6 6.4 0.03 0.71 0.71 77 1015.7
20260831171523 18 275 3.2 14.5 0.03 0.71 0.71 76 1015.6
20260831171019 18 260 4.8 14.5 0.03 0.71 0.71 77 1015.5
20260831170518 19 306 3.2 22.5 0.03 0.71 0.71 76 1015.6
20260831170022 20 301 8.0 22.5 0.00 0.71 0.71 68 1015.4
20260831165517 20 255 12.9 25.7 0.00 0.71 0.71 66 1015.0
20260831165017 20 246 9.7 22.5 0.00 0.71 0.71 66 1014.7
20260831164520 20 255 12.9 24.1 0.00 0.71 0.71 66 1014.6
20260831164016 20 232 14.5 27.4 0.00 0.71 0.71 66 1014.7
20260831163516 20 252 14.5 29.0 0.00 0.71 0.71 66 1014.7
20260831163018 20 254 16.1 25.7 0.00 0.71 0.71 67 1014.7
20260831162516 20 254 9.7 24.1 0.00 0.71 0.71 69 1014.7
20260831162015 20 224 14.5 29.0 0.00 0.71 0.71 70 1014.6
20260831161519 20 221 14.5 29.0 0.00 0.71 0.71 69 1014.5
20260831161018 20 229 16.1 24.1 0.00 0.71 0.71 72 1014.1
20260831160515 21 214 14.5 27.4 0.00 0.71 0.71 73 1014.2
20260831160017 21 214 12.9 27.4 0.00 0.71 0.71 74 1014.2
20260831155515 21 198 11.3 27.4 0.00 0.71 0.71 75 1014.2
20260831155015 20 219 11.3 27.4 0.00 0.71 0.71 75 1014.3
20260831154515 20 205 12.9 24.1 0.00 0.71 0.71 77 1014.4
20260831154014 20 192 14.5 19.3 0.00 0.71 0.71 78 1014.5
20260831153515 19 210 9.7 20.9 0.00 0.71 0.71 79 1014.5
20260831153016 19 192 11.3 20.9 0.00 0.71 0.71 79 1014.6
20260831152514 19 171 12.9 24.1 0.00 0.71 0.71 79 1014.8
20260831152014 19 202 14.5 27.4 0.00 0.71 0.71 79 1014.7
20260831151519 19 218 14.5 35.4 0.00 0.71 0.71 79 1014.9
20260831151014 19 240 16.1 35.4 0.00 0.71 0.71 79 1014.8
20260831150514 19 235 17.7 32.2 0.00 0.71 0.71 80 1014.9
20260831150014 19 205 16.1 33.8 0.00 0.71 0.71 80 1014.8
20260831145514 20 237 16.1 30.6 0.00 0.71 0.71 79 1014.8
20260831145016 20 214 17.7 32.2 0.00 0.71 0.71 78 1014.6
20260831144513 20 194 19.3 33.8 0.00 0.71 0.71 78 1014.5
20260831144013 20 181 17.7 25.7 0.00 0.71 0.71 79 1014.4
20260831143513 19 234 14.5 40.2 0.00 0.71 0.71 79 1014.5
20260831143013 19 226 16.1 40.2 0.00 0.71 0.71 77 1014.4
20260831142512 20 217 17.7 35.4 0.00 0.71 0.71 77 1014.3
20260831142015 20 191 20.9 40.2 0.00 0.71 0.71 74 1014.4
20260831141512 20 227 24.1 40.2 0.00 0.71 0.71 69 1014.1
20260831141013 21 192 19.3 35.4 0.00 0.71 0.71 69 1014.1
20260831140512 21 218 20.9 35.4 0.00 0.71 0.71 67 1014.1
20260831140012 21 200 17.7 33.8 0.00 0.71 0.71 67 1014.1
20260831135512 21 215 17.7 29.0 0.00 0.71 0.71 66 1014.2
20260831135012 21 197 16.1 27.4 0.00 0.71 0.71 66 1014.0
20260831134521 21 224 16.1 25.7 0.00 0.71 0.71 67 1014.0
20260831134010 21 222 14.5 32.2 0.00 0.71 0.71 66 1014.0
20260831133510 22 200 16.1 32.2 0.00 0.71 0.71 66 1013.9
20260831133012 21 185 14.5 30.6 0.00 0.71 0.71 66 1014.1
20260831132513 21 191 14.5 30.6 0.00 0.71 0.71 66 1014.0
20260831132011 21 213 16.1 29.0 0.00 0.71 0.71 67 1014.1
20260831131510 21 208 17.7 30.6 0.00 0.71 0.71 66 1014.2
20260831131013 21 190 16.1 33.8 0.00 0.71 0.71 66 1014.3
20260831130510 21 207 19.3 33.8 0.00 0.71 0.71 66 1014.3
20260831130011 21 188 17.7 37.0 0.00 0.71 0.71 67 1014.4
20260831125509 22 253 22.5 37.0 0.00 0.71 0.71 65 1014.5
20260831125010 21 252 20.9 35.4 0.00 0.71 0.71 67 1014.5
20260831124510 21 216 16.1 35.4 0.00 0.71 0.71 67 1014.5
20260831124009 21 213 22.5 35.4 0.00 0.71 0.71 66 1014.6
20260831123509 21 235 12.9 35.4 0.00 0.71 0.71 69 1014.4
20260831123012 21 248 17.7 30.6 0.00 0.71 0.71 66 1014.5
20260831122509 21 221 16.1 32.2 0.00 0.71 0.71 68 1014.4
20260831122009 22 228 17.7 37.0 0.00 0.71 0.71 68 1014.4
20260831121509 22 235 24.1 37.0 0.00 0.71 0.71 66 1014.5
20260831121009 22 256 19.3 37.0 0.00 0.71 0.71 66 1014.5
20260831120511 21 234 20.9 40.2 0.00 0.71 0.71 66 1014.3
20260831120010 21 242 19.3 40.2 0.00 0.71 0.71 66 1014.4
20260831115510 21 200 22.5 37.0 0.00 0.71 0.71 66 1014.5
20260831115007 21 212 24.1 37.0 0.00 0.71 0.71 67 1014.5
20260831114508 21 216 19.3 35.4 0.00 0.71 0.71 68 1014.4
20260831114007 22 243 20.9 33.8 0.00 0.71 0.71 67 1014.4
20260831113507 22 198 19.3 35.4 0.00 0.71 0.71 67 1014.4